sat.trackr.live / text

‹ back to catalog

ONEWEB-0214

NORAD 48788 · 2021-045X

PAYLOAD ACTIVE UNKNOWN

§ Identity

Operator
Country
UK
Launch date
2021-05-28
Launch site
VOSTO
Launch vehicle
Mass (kg)
RCS (m²)

Purposes: comms

External: N2YO · Heavens-Above · Gunter

§ Orbital elements

Epoch: 2026-09-19T22:16:36.994944Z

Period
109.46 min
Inclination
87.8998°
Eccentricity
0.0002119
Mean motion
13.15545419 rev/d
Perigee alt
1,200.2 km
Apogee alt
1,203.4 km
Semi-major
7,579.9 km
B*
-1.6071e-3
RAAN
240.2986°
Arg perigee
83.9832°
Mean anomaly
276.1540°
Rev number
25,674

§ Raw data

ONEWEB-02141 48788U 21045X   26262.92820596 -.00000592  00000+0 -16071-2 0  99902 48788  87.8998 240.2986 0002119  83.9832 276.1540 13.15545419256740

JSON: /api/v1/satellites/48788 · /tle

For live sub-satellite position, see the globe view (requires WebGL).

§ Visibility from observer

Set your observer location to see the next 7 days of passes ≥ 10°. The values pass through the URL so the page stays shareable.

No JS? Fill the form by hand. The geolocation button needs JavaScript.